Regional Weather Roundup
Issued by NWS Cleveland, OH

Home | Current Version | Previous Version | Graphics & Text | Print | Product List | Glossary On
Versions: 1 2 3 4 5 6 7 8 9 10 11 12 13 14 15 16 17 18 19 20 21 22 23 24 25 26 27 28 29 30 31 32 33 34 35 36 37 38 39 40 41 42 43 44 45 46 47 48 49 50
000
ASUS41 KCLE 302210
RWRCLE
OHIO REGIONAL WEATHER ROUNDUP
NATIONAL WEATHER SERVICE CLEVELAND, OH
600 PM EDT THU OCT 30 2014

NOTE: "FAIR" INDICATES FEW OR NO CLOUDS BELOW 12,000 FEET WITH NO
SIGNIFICANT WEATHER AND/OR OBSTRUCTIONS TO VISIBILITY.

OHZ001>008-015>018-024>027-034-035-043-044-302300-
   NORTHWEST OHIO

CITY           SKY/WX    TMP DP  RH WIND       PRES   REMARKS
DEFIANCE       CLOUDY    48  35  60 S3        30.08F
FINDLAY        CLOUDY    49  33  54 SW5       30.07S
TOLEDO EXPRESS CLOUDY    48  35  60 W7        30.07F
TOLEDO EXEC    CLOUDY    50  34  54 W5        30.09S
LIMA           CLOUDY    48  34  58 W7        30.08S
$$

OHZ009>014-019>023-028>033-038-089-302300-
   NORTHEAST OHIO

CITY           SKY/WX    TMP DP  RH WIND       PRES   REMARKS
CLE-HOPKINS    MOCLDY    47  37  68 W6        30.10S
CLE-LAKEFRONT  PTCLDY   N/A N/A N/A MISG        N/A
CUY CO. ARPT   MOCLDY    46  39  76 NW8       30.08S
LORAIN-ELYRIA  PTCLDY    46  34  62 NW9       30.09S
ASHTABULA      CLOUDY    46  37  71 NW5       30.08S
AKRON-CANTON   CLOUDY    48  35  60 W3        30.07S
WOOSTER        CLOUDY    48  35  60 NW5       30.08S
MANSFIELD      CLOUDY    46  36  68 N5        30.07S
YOUNGSTOWN     CLOUDY    47  36  65 NW5       30.06S
$$

OHZ042-051>053-060>062-070>072-077>081-302300-
  SOUTHWEST OHIO

CITY           SKY/WX    TMP DP  RH WIND       PRES   REMARKS
CINC-COVINGTON PTCLDY    54  33  45 CALM      30.06S
CINC-LUNKEN    PTCLDY    52  35  52 SE3       30.07S
HAMILTON       PTCLDY    53  34  48 CALM      30.08S
DAYTON         MOCLDY    49  35  58 NE6       30.08F
WRIGHT-PAT AFB PTCLDY    49  33  54 N3        30.07F
DAYTON GENERAL PTCLDY    50  35  56 NE3       30.06F
WILMINGTON     CLEAR     50  31  48 CALM      30.06F
$$

OHZ036-037-039>041-045>050-054>059-063>069-073>076-082>088-302300-
  CENTRAL AND SOUTHEAST OHIO

CITY           SKY/WX    TMP DP  RH WIND       PRES   REMARKS
COLUMBUS       CLOUDY    48  33  56 N5        30.08S
OSU AIRPORT    CLOUDY    48  32  53 CALM      30.08S
BOLTON FIELD   CLOUDY    48  34  57 NW3       30.08F
RICKENBACK AFB CLOUDY    48  33  54 CALM      30.08S
NEWARK         CLOUDY    49  32  52 W5        30.08S
MARION         CLOUDY    48  33  56 CALM      30.08S
LANCASTER      CLOUDY    49  34  56 CALM      30.09S
ZANESVILLE     CLOUDY    48  33  56 NW3       30.07F
NEW PHILLY     CLOUDY    50  36  58 CALM      30.08F
$$



USA.gov is the U.S. government's official web portal to all federal, state and local government web resources and services.